AirNav   Everest Fuels
 
 874 users online  

05FD Aventura Heliport
North Miami Beach, Florida, USA

GOING TO NORTH MIAMI BEACH?


FAA INFORMATION EFFECTIVE 17 JUNE 2021

Location

FAA Identifier: 05FD
Lat/Long: 25-57-39.3310N 080-08-21.1630W
25-57.655517N 080-08.352717W
25.9609253,-80.1392119
(estimated)
Elevation: 6 ft. / 2 m (estimated)
Variation: 03W (1985)
From city: 3 miles N of NORTH MIAMI BEACH, FL
Time zone: UTC -4 (UTC -5 during Standard Time)
Zip code: 33180

Heliport Operations

Heliport use: Private use. Permission required prior to landing
Activation date: 06/1991
Control tower: no
ARTCC: MIAMI CENTER
FSS: MIAMI FLIGHT SERVICE STATION
Attendance: 0800-1600
Segmented circle: no
Lights: FOR POLE & LANDSCAPE LIGHTING CALL 305-933-6911.
Landing fee: yes

Heliport Communications

WX ASOS at HWO (6 nm NW): PHONE 954-983-5904
WX ASOS at FLL (7 nm N): 135.0 (954-359-7857)
WX ASOS at OPF (8 nm SW): 125.9 (305-681-4063)
WX ASOS at MIA (13 nm SW): 119.15 (305-870-0235)
WX ASOS at FXE (14 nm N): 119.85 (954-772-2537)
WX ASOS at PMP (17 nm N): 120.55 (954-783-3720)

Nearby radio navigation aids

VOR radial/distance  VOR name  Freq  Var
FLLr174/6.9FORT LAUDERDALE VOR/DME114.4006W
VKZr008/12.6VIRGINIA KEY VOR/DME117.1004W
DHPr054/14.9DOLPHIN VORTAC113.9004W

Heliport Services

Runway Information

Helipad H1

Dimensions: 95 x 95 ft. / 29 x 29 m
Surface: turf
Runway edge lights: non-standard
POLE AND LANDSCAPE LIGHTING.
Traffic pattern: leftleft

Heliport Ownership and Management from official FAA records

Ownership: Privately-owned
Owner: DON SOFFER
19495 BISCAYNE BLVD SUITE 900
NORTH MIAMI BEACH, FL 33180
Phone 305-937-6200
Manager: TURNBERRY ISLE RESORT
19999 W. COUNTRY CLUB DRIVE
AVENTURA, FL 33180
Phone 305-932-6200

Additional Remarks

FOR CD CTC MIAMI APCH AT 305-869-5432.

Instrument Procedures

There are no published instrument procedures at 05FD.

Some nearby airports with instrument procedures:

KHWO - North Perry Airport (6 nm NW)
KFLL - Fort Lauderdale/Hollywood International Airport (7 nm N)
KOPF - Miami-Opa Locka Executive Airport (8 nm SW)
KMIA - Miami International Airport (13 nm SW)
KFXE - Fort Lauderdale Executive Airport (14 nm N)
KPMP - Pompano Beach Airpark (17 nm N)
 
Loc | Ops | Rwys | IFR | FBO | Links
Com | Nav | Svcs | Stats | Notes


 
Area around 05FD (Aventura Heliport)
 
Road maps at: MapQuest Bing Google
 
Aerial photo
No photo
 
Sectional chart

 
Airport distance calculator
Flying to Aventura Heliport? Find the distance to fly.

From to 05FD

Sunrise and sunset
Times for 21-Jun-2021
 Local
(UTC-4)
 Zulu
(UTC)
Morning civil twilight06:0410:04
Sunrise06:3010:30
Sunset20:1400:14
Evening civil twilight20:4000:40

Current date and time
Zulu (UTC)  22-Jun-2021 03:39:05
Local (UTC-4)  21-Jun-2021 23:39:05
 
METAR
KHWO 
6nm NW 
220253Z AUTO 13004KT 10SM CLR 28/24 A3010 RMK AO2 SLP194 T02830244 53021
KFLL 
6nm N 
220253Z 14006KT 10SM FEW025 BKN230 29/26 A3009 RMK AO2 SLP187 T02890261 53021
KOPF 
8nm W 
220253Z 13005KT 10SM CLR 29/23 A3010 RMK AO2 SLP193 T02890233 53022
KMIA 
14nm SW 
220253Z 13004KT 10SM BKN110 OVC250 29/24 A3009 RMK AO2 SLP190 T02890244 53021 $
KFXE 
15nm N 
220253Z 12006KT 10SM CLR 29/26 A3009 RMK AO2 SLP191 T02890256 53020
KPMP 
17nm N 
220253Z AUTO 14006KT 10SM CLR 29/24 A3009 RMK AO2 SLP190 T02890244 53020
TAF
KFLL 
6nm N 
202219Z 2022/2124 17006KT P6SM VCTS SCT020CB BKN040 TEMPO 2022/2023 5SM TSRA BKN030CB FM210100 17006KT P6SM FEW030 BKN060 BKN250 FM211400 16010KT P6SM SCT030 SCT060
KOPF 
8nm W 
212106Z 2121/2218 15012KT P6SM SCT030 BKN200 FM220200 11005KT P6SM SCT025 BKN070 FM221300 14011KT P6SM SCT030 BKN050
KMIA 
14nm SW 
212106Z 2121/2224 15012KT P6SM SCT030 BKN200 FM220200 11005KT P6SM SCT025 BKN070 FM221300 14011KT P6SM SCT030 BKN050
KFXE 
15nm N 
212106Z 2121/2218 15012KT P6SM SCT030 BKN200 FM220200 11005KT P6SM SCT025 BKN070 FM221300 14011KT P6SM SCT030 BKN050
NOTAMs
Click for the latest NOTAMs
NOTAMs are issued by the DoD/FAA and will open in a separate window not controlled by AirNav.

 

 
 

Would you like to see your business listed on this page?

 If your business provides an interesting product or service to pilots, flight crews, aircraft, or users of the Aventura Heliport, you should consider listing it here.  To start the listing process, click on the button below
 
Add a business
 

Other Pages about Aventura Heliport

Update a link
 
Copyright © AirNav, LLC. All rights reserved. Privacy Policy  Contact